www.pogodaiklimat.ru

Погода и климат >> Архив погоды >> Россия >> Самарская область >> Самара


АРХИВ ПОГОДЫ в Самаре

Время (UTC), дата Ветер
(напр.,м/с)
 
Видим.   Явления Облачность Т
(С)
Тd
(С)
f
(%)
Тe
(С)
Тes
(С)
Комфортность P
(гПа)
Po
(гПа)
Тmin
(С)
Tmax
(С)
R
(мм)
R24
(мм)
S
(см)
12 19.09 З 3
{10}
10 км {ливн. осадки} 10/10 600 м
[Cb calv]
+11.0 +7.5 79 +9 +9 1007.9 991.2
15 19.09 СЗ 3
{12}
10 км 10/10 600 м
[Cb calv]
+11.2 +6.1 71 +9 +9 1009.2 992.5 +13.0 2
18 19.09 З 2 10 км 6/6 600 м
[Sc]
+10.2 +7.3 82 +9 +9 1009.8 993.0
21 19.09 З 1 10 км 3/3 600 м
[Sc]
+9.4 +4.8 73 +9 +9 1010.3 993.5
00 20.09 штиль 0 10 км ясно +6.5 +4.1 85 +6 +6 1010.9 993.9
03 20.09 З 1 10 км ясно +7.8 +5.1 83 +7 +7 1012.0 995.0 +5.8
06 20.09 СЗ 3 10 км 4/3 600 м
[Sc Ac trans]
+12.2 +5.3 63 +11 +13 1012.2 995.5
09 20.09 С 2 10 км 4/4 600 м
[Cu med, cong]
+16.0 +4.0 45 +16 +21 1011.4 994.9
12 20.09 З 3 10 км 5/3 600 м
[Cu med, cong Ci fib]
+17.0 +4.5 43 +17 +19 1011.4 995.0
15 20.09 З 1 10 км 9/0
[Ac trans Ci fib]
+13.9 +7.4 65 +14 +14 1011.6 995.0 +17.3
18 20.09 штиль 0 10 км 9/3 600 м
[Sc Ac trans Ci fib]
+13.1 +8.8 75 +13 +13 1010.9 994.3
21 20.09 В 1 10 км слабый ливневой дождь 10/6 600 м
[Cb cap Ac und]
+12.4 +10.3 87 +12 +12 1010.9 994.2
00 21.09 В 2 10 км в посл. час ливневой дождь 3/3 600 м
[Cb cap]
+10.6 +9.0 90 +9 +9 1010.9 994.1
03 21.09 СВ 2 10 км в посл. час ливневой дождь 10/10 600 м
[Cb cap]
+11.3 +9.7 90 +10 +10 1013.1 996.3 +10.6 3
06 21.09 СЗ 2 10 км {ливн. осадки} 8/4 600 м
[Sc Ac trans Ci fib]
+13.6 +10.4 81 +13 +15 1014.7 998.1
09 21.09 СЗ 2 10 км 8/4 600 м
[Sc Ac trans Ci fib]
+15.6 +8.9 64 +16 +19 1015.8 999.2
12 21.09 СЗ 2 10 км 6/6 600 м
[Sc]
+16.0 +10.1 68 +16 +17 1016.3 999.8
15 21.09 СЗ 2 10 км 10/8 600 м
[Sc Ac trans]
+15.7 +11.4 76 +16 +16 1017.7 1001.1 +17.0
18 21.09 СЗ 1 10 км 6/0
[Ac trans]
+14.0 +11.9 87 +14 +14 1018.9 1002.2
21 21.09 СЗ 1 10 км 4/0
[Ac trans Ci fib]
+11.6 +10.3 92 +11 +11 1020.2 1003.4
00 22.09 СЗ 1 500 м туман н/о +11.9 +11.9 100 +12 +12 1021.1 1004.2
03 22.09 З 1 200 м туман н/о +11.6 +11.6 100 +11 +11 1022.1 1005.2 +9.9
06 22.09 З 1 4000 м {туман} 3/0
[Ci fib]
+14.5 +14.5 100 +15 +19 1022.6 1005.9
09 22.09 ЮЗ 3 10 км 1/0
[Ci fib]
+19.3 +13.0 67 +21 +27 комфорт 1022.1 1005.6
12 22.09 ЮЗ 1 10 км 1/1 600 м
[Sc diur, vesp]
+22.2 +14.0 60 +25 +28 комфорт 1020.7 1004.4
15 22.09 З 1 10 км 1/0
[Ci fib]
+20.2 +13.4 65 +23 +23 комфорт 1020.5 1004.1 +22.8
18 22.09 штиль 0 10 км ясно +14.1 +12.7 91 +14 +14 1020.8 1004.1
21 22.09 штиль 0 10 км ясно +14.6 +14.3 98 +14 +14 1020.7 1004.0
00 23.09 штиль 0 10 км ясно +12.9 +10.7 86 +12 +12 1020.7 1003.9
03 23.09 штиль 0 4000 м дымка ясно +11.3 +11.3 100 +11 +11 1020.7 1003.8 +11.2
06 23.09 З 1 10 км 6/0
[Ac trans Ci fib]
+17.8 +12.9 73 +19 +22 1019.8 1003.4
09 23.09 З 2 10 км 1/1 600 м
[Cu hum]
+23.2 +12.0 49 +26 +32 жарко 1018.4 1002.2
12 23.09 Ю 3 10 км 3/3 600 м
[Cu hum]
+24.3 +10.1 41 +25 +27 комфорт 1016.8 1000.7
15 23.09 Ю 1 10 км ясно +21.5 +9.2 45 +21 +21 комфорт 1015.5 999.3 +24.7
18 23.09 В 2 10 км ясно +18.1 +7.7 51 +19 +19 1014.7 998.3
21 23.09 ЮВ 1 10 км ясно +16.2 +3.8 44 +17 +17 1014.0 997.5
00 24.09 В 3 10 км ясно +13.0 +3.7 53 +12 +12 1013.0 996.4
03 24.09 В 4 10 км 4/0
[Ac trans Ci fib]
+11.5 +2.8 55 +10 +10 1011.9 995.2 +11.5
06 24.09 ЮВ 3 10 км 10/0
[Ac trans Ci fib]
+17.4 +3.4 39 +17 +19 1011.4 995.0 +11.3
09 24.09 Ю 2 10 км 8/0
[Ac trans Ci fib]
+21.6 +2.8 29 +22 +27 комфорт 1011.3 995.2
12 24.09 В 2 10 км в посл. час ливневой дождь 10/8 300 м
[Cb cap Ac trans]
+16.9 +10.3 65 +17 +17 1011.8 995.4
15 24.09 ЮЗ 1 10 км {ливн. осадки} 10/8 600 м
[Cb cap Ac und]
+17.1 +10.7 66 +18 +18 1012.2 995.8 +21.7 0.0
18 24.09 В 1 10 км {ливн. осадки} 4/0
[Ac trans]
+15.4 +11.7 79 +16 +16 1011.9 995.4
21 24.09 ЮВ 1 10 км 3/0
[Ci fib]
+13.2 +11.2 88 +13 +13 1012.2 995.6
00 25.09 ЮВ 1 10 км 3/0
[Ac trans]
+11.3 +9.6 89 +11 +11 1012.9 996.1
03 25.09 Ю 1 4000 м дымка 10/10 300 м
[St]
+9.9 +8.5 91 +9 +9 1013.0 996.2 +9.9
06 25.09 Ю 2 10 км 10/8 600 м
[Sc Ac trans]
+11.8 +10.0 89 +11 +11 1012.8 996.1 +9.7
09 25.09 ЮЗ 2 10 км 8/3 600 м
[Sc Ac trans Ci fib]
+16.6 +8.4 58 +17 +20 1012.6 996.2
12 25.09 Ю 2 10 км 8/0
[Ac trans]
+18.7 +4.3 39 +20 +21 1011.4 995.1
15 25.09 ЮВ 3 10 км 10/6 600 м
[Sc Ac trans]
+18.2 +2.8 36 +18 +18 1011.3 994.9 +19.4
18 25.09 Ю 3 10 км 10/8 600 м
[Sc Ac trans]
+17.6 +4.1 41 +18 +18 1011.5 995.1
21 25.09 Ю 2 10 км 4/0
[Ac trans]
+17.2 +5.0 44 +18 +18 1011.2 994.8
00 26.09 З 2 10 км 8/0
[Ac trans]
+15.4 +11.5 78 +15 +15 1011.8 995.4
03 26.09 З 2 10 км 6/0
[Ac trans]
+10.6 +7.7 82 +9 +9 1015.1 998.2 +10.6
06 26.09 З 2 10 км в посл. час ливневой дождь 10/3 600 м
[Sc diur, vesp Ac trans]
+10.9 +7.2 78 +10 +11 1017.7 1000.9 +10.6

 

Местоположение метеостанции Самара (Самарская область, Россия): широта 53.25 долгота 50.22 высота над уровнем моря 139 м.

В архиве по умолчанию представлена погода в Самаре за последнюю неделю. Архивные данные за месяц целиком и за предыдущие месяцы, начиная с января 2011 года, Вы можете получить, выбрав интересующий диапазон дат из раскрывающегося списка и нажав кнопку "Ввод!".


*Определитесь, кто Вы:
робот инопланетянин человек

Внимание! Время в таблицах - всемирное. Для получения местного времени необходимо прибавить поправку, которая в Самаре равна 4 ч.

Смотрите также архив погоды в соседних городах и на ближайших метеорологических станциях:

Погода в Самаре АМС (Самарская область, Россия) (7 км)
Погода в Самаре-Центр (Самарская область, Россия) (8 км)
Погода в Курумоче (Самарская область, Россия) (28 км)
Погода в Аглосе (Самарская область, Россия) (32 км)
Погода в Чапаевске (Самарская область, Россия) (43 км)
Погода в Безенчуке (Самарская область, Россия) (61 км)
Погода в Тольятти (Самарская область, Россия) (69 км)
Погода в Богатом (Самарская область, Россия) (73 км)
Погода в Кинель-Черкассах (Самарская область, Россия) (94 км)
Погода в Большая Глушица (Самарская область, Россия) (98 км)

Пояснения к столбцам:

Ветер - указаны скорость ветра в м/с - средняя за 10 мин, порывы в срок и между сроками (в фигурных скобках) и направление, откуда дует ветер: С - северный, СВ - северо-восточный, В - восточный, ЮВ - юго-восточный, Ю - южный, ЮЗ - юго-западный, З - западный, СЗ - северо-западный.
Видимость - горизонтальная дальность видимости в метрах или километрах. При видимости от 1 до 10 км при отсутствии осадков обычно наблюдается дымка, при ухудшении видимости до 1 км и менее - туман. В сухую погоду видимость может ухудшаться дымом, пылью или мглою.
Явления - указаны атмосферные явления, наблюдавшиеся в срок или в последний час перед сроком; фигурными скобками обозначены явления, наблюдавшиеся между сроками (за 1-3 часа до срока); квадратными скобками обозначены град или гололедные отложения с указанием их диаметра в мм.
Облачность - указаны через наклонную черту общая и нижняя облачность в баллах и высота нижней границы облаков в метрах; квадратными скобками обозначены формы облаков: Ci - перистые, Cs - перисто-слоистые, Cc - перисто-кучевые, Ac - высококучевые, As - высокослоистые, Sc - слоисто-кучевые, Ns - слоисто-дождевые, Cu - кучевые, Cb - кучево-дождевые. Подробнее классификацию облаков см. в Атласе облаков (PDF).
T - Температура воздуха - температура, измеренная на высоте 2 м над землей.
Td - Температура точки росы - температура, при понижении до которой содержащийся в воздухе водяной пар достигнет насыщения.
f - Относительная влажность воздуха - влажноcть воздуха, измеренная на высоте 2 м над землей.
Te - Эффективная температура - температура, которую ощущает одетый по сезону человек в тени. Характеристика душности погоды. При расчете учитывается влияние влажности воздуха и скорости ветра на теплоощущения человека.
Tes - Эффективная температура на солнце - температура, которую ощущает человек, с поправкой на солнечный нагрев. Характеристика знойности погоды. Зависит от высоты солнца над горизонтом, облачности и скорости ветра. Ночью, в пасмурную погоду, а также при ветре 12 м/с и более поправка равна нулю.
P - Атмосферное давление - приведенное к уровню моря атмосферное давление.
Po - Атмосферное давление - измеренное на уровне метеостанции атмосферное давление.
Tmin - Минимальная температура - минимум температуры воздуха на высоте 2 м над землей.
Tmax - Максимальная температура - максимум температуры воздуха на высоте 2 м над землей.
R - Количество осадков - Количество выпавших осадков за период времени, мм. При наведении курсора мыши на число - период времени, за который выпало указанное количество осадков.
R24 - Количество осадков - Количество выпавших осадков за 24 часа, мм.
S - Снежный покров - Высота снежного покрова, см. При наведении курсора мыши на число - состояние снежного покрова и степень покрытия местности в баллах.